CZ-2C DEB, 40288

Orbit data source: Space-Track

CZ-2C DEB, 40288 is space debris in SSO originally from a launch on Mon, 27 Oct 2014 UTC launched from the Jiuquan Satellite Launch Center, China (JSC). Debris objects in space refer to the collection of defunct objects orbiting the Earth. Examples of debris include non-operational satellites, rocket bodies, and fragments generated from explosions, collisions, or faulty payload assembly.

Loading next visibility...
Identifier
40288, 2014-066C
Orbit
SSO
Country
Flag of CNCN / PRC
Related business
Manufacturer
CALT
Mission
Spacecraft
Bus & Motor
Unknown
Mass
1 kg wet, 1 kg dry
Launch date (UTC)
2014-10-27 (12 years ago)
Launch vehicle
Unknown
Launch site
Jiuquan Satellite Launch Center, China (JSC)
Object type
Payload
Rocket body
Debris
Shape & HBR
Cone, 0.1 m
Radar Cross Section
0.025 m², Small (<0.1 m²)

Expand to show TLE details & history
Last TLE update: 16 hours ago

TLE from 16 hours ago
0 CZ-2C DEB
1 40288U 14066C   26133.28750575  .00000994  00000-0  33676-3 0  9993
2 40288  97.9640 256.3848 0155921 307.5953  51.1160 14.32179263599241
Epoch: 2026-05-13T06:54Z
TLE epoch observation values (Epoch: 2026-05-13T06:54:00.496Z)
Latitude
-0.0001°
Longitude
-78.16694°
Altitude
718.361 km
Speed
7.532 km/s
True Right ascension
17h 05m 32s
True Declination
0° 00' 00"
Sunlit
Object was in full shadow at epoch
Visualization orbit readout
Latitude
Unknown
Longitude
Unknown
Altitude
Unknown
Speed
Unknown
Apparent Right ascension
Unknown
Apparent Declination
Unknown
Sunlit
N/A
Visualization observer readout
Local Sidereal Time
06:52:57
Azimuth
Unknown
Elevation
Unknown
Doppler factor
Unknown
Orbital elements
Apogee altitude
893.197 km
Perigee altitude
669.928 km
Semi-major axis
7,159.7 km
Eccentricity
0.01559
Inclination
97.964°
RAAN
256.3848°
Arg. of periapsis
307.5953°
True anomaly
52.52389°
Mean anomaly
51.116°
Eccentric anomaly
51.81823°
Mean motion
3.58262 °/min
Orbital period
100.49 mins
BSTAR
0.00033676
Loading maneuver chart data...
Computing Atmospheric mass density...
Loading historical data...
Loading historical data...
Loading historical data...
Loading historical data...
Loading historical data...
Loading historical data...
Loading historical data...
Other satellites on launch #66 in the year 2014 (2014-10-27 UTC)

Documentation

Showing up to 5 results
|